CZ-6A DEB

Satellite information

Favourite Embed

Satellite Type and Status

DEBRISIN ORBIT

Key statistics

Satellite CZ-6A DEB at a glance.

Uptime

1029

Days in orbit

Revolutions

≈ 14.3

Per day

Orbit

SSO

Sun Synchronous Orbit

Inclination

98.7

Latest

Satellite identification and parameters

Extended collection of information and parameters for CZ-6A DEB.

Object identification

Identified? True

Debris? True

Object name: CZ-6A DEB

International designator: 2022-151CU

Object number (NORAD): 54349

Object ID (CCSDS): 54349

Country: PEOPLES REPUBLIC OF CHINA (PRC)

Current information (Y/N): Y

RCS size: SMALL

Orbital parameters

Period: 100.836 minutes

Inclination: 98.692 deg

SMA: 7176.35 km

Apoapsis: 875.981 km

Periapsis: 720.45 km

RAAN: 262.2998 deg

Eccentricy: 0.01083638

Argument of periapsis: 215.6689 deg

Mean anomaly: 143.7218 deg

Mean motion: 14.28062826 rev/day

Mean motion (dot): 0.0000097 rev/day2

B* drag term: 0.00038385565 1/REarth

Two-line elements (TLE)

Creation date: Sept. 4, 2025, 10:13 a.m.

Reference frame: TEME

Reference center: EARTH

Epoch: Sept. 4, 2025, 7 a.m. UTC

TLE line 0: 0 CZ-6A DEB

TLE line 1: 1 54349U 22151CU 25247.29233950 .00000970 00000-0 38386-3 0 9996

TLE line 2: 2 54349 98.6920 262.2998 0108364 215.6689 143.7218 14.28062826145902

Live tracking on map

Real-time ground track for satellite CZ-6A DEB.

In-orbit conjunctions

A list of the most updated potential collisions computed for object CZ-6A DEB.

Target Orbit TCA Probability of collision Miss distance Type
CZ-6A DEB LEO 2025-05-23 23:48:44 0.0001291656 389.0 (m) DEBRIS
SL-16 DEB LEO 2025-02-01 13:31:42 0.0002153642 358.0 (m) DEBRIS
NOAA 16 DEB SSO 2025-01-24 10:03:18 0.0001554349 79.0 (m) DEBRIS

Associated space launch

Chinese satellite reported for atmospheric/ocean/environmental/spatial parameter research purposes, details TBD.

CZ-6A DEB was lifted into orbit during the mission ‘Long March 6A | Yunhai 3’, on board a Long March 6A space rocket.

The launch took place on Nov. 11, 2022, 10:52 p.m. from Launch Complex 9A.

For more information about the launch, click the button.

Launch to space Long March 6A | Yunhai 3
Long March 6A | Yunhai 3

Agency: N/A

Status: Launch Successful

Launch date: Nov. 11, 2022, 10:52 p.m. UTC

Rocket: Long March 6A

Launch pad: Launch Complex 9A

Location: Taiyuan Satellite Launch Center, People's Republic of China

...

Latest news about this satellite

There are no fresh news available about this satellite. Check back as we update our databases every day.


Newsletter sign-up

Weekly statistics, charts and insights to help you stay on top of the space industry.